sat.trackr.live / text

‹ back to catalog

ICEYE-X21

NORAD 55049 · 2023-001AS

PAYLOAD ACTIVE UNKNOWN

§ Identity

Operator
Country
FIN
Launch date
2023-01-03
Launch site
AFETR
Launch vehicle
Mass (kg)
RCS (m²)

External: N2YO · Heavens-Above · Gunter

§ Orbital elements

Epoch: 2026-05-25T05:39:17.255232Z

Period
90.24 min
Inclination
97.3249°
Eccentricity
0.0004933
Mean motion
15.95796241 rev/d
Perigee alt
282.8 km
Apogee alt
289.4 km
Semi-major
6,664.2 km
B*
4.7652e-4
RAAN
229.6038°
Arg perigee
180.7431°
Mean anomaly
179.3838°
Rev number
18,994

§ Raw data

ICEYE-X211 55049U 23001AS  26145.23561638  .00191072  16286-4  47652-3 0  99952 55049  97.3249 229.6038 0004933 180.7431 179.3838 15.95796241189941

JSON: /api/v1/satellites/55049 · /tle

For live sub-satellite position, see the globe view (requires WebGL).

§ Visibility from observer

Set your observer location to see the next 7 days of passes ≥ 10°. The values pass through the URL so the page stays shareable.

No JS? Fill the form by hand. The geolocation button needs JavaScript.

§ Radio — SatNOGS DB

ModeDescriptionDownlinkUplink
BPSK S-band telemetry 2.264 GHz

1 transmitter · refreshed weekly from db.satnogs.org